Location: Newark
(25.6108°S, 54.5803°W)
Time: 08:17:12
(UTC+00:00)

Courier 1B - Pass Details

Date: 30 October 2020
Orbit: 962 x 1209 km, 28.3° (Epoch: 02 December)

Event Time Altitude Azimuth Distance (km) Brightness Sun altitude
Rises 04:58:38 0° 259° (W) 4,086 - -44.0°
Reaches altitude 10° 05:01:28 10° 258° (WSW) 3,139 - -43.6°
Maximum altitude 05:09:23 82° 170° (S) 1,223 - -42.6°
Exits shadow 05:14:31 24° 83° (E) 2,239 9.5 -41.9°
Drops below altitude 10° 05:17:15 10° 81° (E) 3,120 10.4 -41.5°
Sets 05:20:04 0° 80° (E) 4,061 11.0 -41.1°
